Regional Weather Roundup
Issued by NWS

Home | Current Version | Previous Version | Graphics & Text | Print | Product List | Glossary Off
Versions: 1 2 3 4 5 6 7 8 9 10 11 12 13 14 15 16 17 18 19 20 21 22 23 24 25 26 27 28 29 30 31 32 33 34 35 36 37 38 39 40 41 42 43 44 45 46 47 48 49

000
ASUS43 KDMX 311207
RWRIA

WEATHER ROUNDUP FOR IOWA
NATIONAL WEATHER SERVICE DES MOINES IA
700 AM CDT THU JUL 31 2014

NOTE: "FAIR" INDICATES FEW OR NO CLOUDS BELOW 12,000 FEET WITH NO
SIGNIFICANT WEATHER AND/OR OBSTRUCTIONS TO VISIBILITY.

* - THESE STATIONS ARE NOT NWS STATIONS...THUS NOT UNDER NWS
QUALITY CONTROL.  THEY ALSO DO NOT REPORT WEATHER SUCH
AS PRECIPITATION OR FOG.

IAZ001>003-012>014-020>022-031>034-043>046-311300-
   NORTHWEST IOWA

CITY           SKY/WX    TMP DP  RH WIND       PRES   REMARKS
CARROLL *      CLEAR     52  50  93 CALM      30.11S
CHEROKEE *     CLEAR     51  51 100 CALM      30.11S FOG
DENISON *      CLEAR     52  52 100 CALM      30.10S
LE MARS *      CLEAR     54  52  94 CALM      30.10S
ORANGE CITY *  CLEAR     61  54  77 CALM      30.10S
SHELDON *      CLEAR     50  50 100 CALM      30.10R
SIOUX CITY     CLEAR     56  54  93 E5        30.09F
6HR MIN TEMP:  54; 6HR MAX TEMP:  58;

SPENCER        CLEAR     50  49  96 CALM      30.11R
6HR MIN TEMP:  49; 6HR MAX TEMP:  57;

STORM LAKE *   CLEAR     57  55  94 W6        30.11S
$$

IAZ055>058-069>071-079>083-090>094-311300-
   SOUTHWEST IOWA

CITY           SKY/WX    TMP DP  RH WIND       PRES   REMARKS
ATLANTIC *     CLEAR     50  48  93 N3        30.11S
AUDUBON *      CLEAR     52  48  87 CALM      30.13S
CLARINDA *     FOG       48  48 100 CALM      30.13S VSB 1/4
COUNCIL BLFS * CLEAR     59  57  94 S3        30.10S
CRESTON *      CLEAR     55  54  94 CALM      30.12S
HARLAN  *      FOG       50  50 100 CALM      30.15R VSB 1
LAMONI         CLEAR     58  54  86 CALM      30.11S
6HR MIN TEMP:  57; 6HR MAX TEMP:  63;

RED OAK *      CLEAR     52  50  93 CALM      30.12R
SHENANDOAH *   CLEAR     52  50  93 CALM      30.12S
$$

IAZ047>049-059>061-072>074-084-311300-
   CENTRAL IOWA

CITY           SKY/WX    TMP DP  RH WIND       PRES   REMARKS
AMES           CLEAR     56  54  93 SW3       30.09S
6HR MIN TEMP:  54; 6HR MAX TEMP:  59;

ANKENY *       MOCLDY    55  54  94 CALM      30.10S
CHARITON *     CLEAR     57  55  94 W5        30.11R
DES MOINES     PTCLDY    60  56  86 SW3       30.10R
6HR MIN TEMP:  59; 6HR MAX TEMP:  67;

GRINNELL*      CLEAR     59  55  88 W3        30.10R
KNOXVILLE *    CLEAR     57  55  94 W7        30.09S
MARSHALLTOWN   CLEAR     55  55 100 W5        30.08S FOG
6HR MIN TEMP:  55; 6HR MAX TEMP:  62;

PELLA *        CLEAR     61  61  99 CALM      30.11R
PERRY *        MOCLDY    55  55 100 CALM      30.10S
$$

IAZ004>006-015-016-023>025-035-036-311300-
   NORTH CENTRAL IOWA

CITY           SKY/WX    TMP DP  RH WIND       PRES   REMARKS
ALGONA *       CLOUDY    61  57  88 W7        30.09S
CLARION *      CLEAR     54  54 100 S5        30.10R
ESTHERVILLE    PTCLDY    56  54  93 W5        30.09R
6HR MIN TEMP:  55; 6HR MAX TEMP:  57;

FORT DODGE *   CLEAR     54  52  94 CALM      30.11R
MASON CITY     CLEAR     58  55  90 W7        30.10R
6HR MIN TEMP:  52; 6HR MAX TEMP:  59;

FOREST CITY *  MOCLDY    54  54 100 CALM      30.09R
IOWA FALLS *     N/A     57  54  88 NW3       30.10R
$$

IAZ007>011-017>019-026>030-037>042-050>054-066-311300-
   NORTHEAST IOWA

CITY           SKY/WX    TMP DP  RH WIND       PRES   REMARKS
CEDAR RAPIDS   CLEAR     58  57  97 CALM      30.07R
6HR MIN TEMP:  56; 6HR MAX TEMP:  62;

CHARLES CITY * CLEAR     55  55 100 W3        30.08S
CLINTON *      SUNNY     57  55  94 W6        30.08S
DECORAH *      SUNNY     59  55  88 CALM      30.05S
DUBUQUE        SUNNY     56  55  97 SW3       30.06S
6HR MIN TEMP:  54; 6HR MAX TEMP:  60;

MONTICELLO *   SUNNY     55  55 100 CALM      30.06S
OELWEIN *      CLEAR     57  57 100 W5        30.08S FOG
WATERLOO       CLEAR     57  55  93 CALM      30.07R
6HR MIN TEMP:  54; 6HR MAX TEMP:  63;

$$

IAZ064-065-067-068-078-311300-
   EAST CENTRAL IOWA

CITY           SKY/WX    TMP DP  RH WIND       PRES   REMARKS
DAVENPORT      SUNNY     58  56  93 W6        30.07R FOG
6HR MIN TEMP:  55; 6HR MAX TEMP:  60;

IOWA CITY      CLEAR     60  58  92 W5        30.08S
6HR MIN TEMP:  58; 6HR MAX TEMP:  65;

MT. PLEASANT * CLEAR     58  57  96 CALM      30.09S
MUSCATINE *    CLEAR     59  57  94 CALM      30.07S
QUAD CITIES    SUNNY     60  57  89 SW3       30.06R
6HR MIN TEMP:  58; 6HR MAX TEMP:  63;

$$

IAZ062-063-075>077-085>089-095>099-311300-
   SOUTHEAST IOWA

CITY           SKY/WX    TMP DP  RH WIND       PRES   REMARKS
BURLINGTON     CLEAR     60  58  92 CALM      30.08S
6HR MIN TEMP:  56; 6HR MAX TEMP:  63;

FAIRFIELD *    CLEAR     61  57  88 W6        30.09S
FORT MADISON * CLEAR     63  61  94 CALM      30.09S
KEOKUK *       CLEAR     59  57  94 SW5       30.08S
OSKALOOSA *      N/A     58  56  95 W3        30.10S
CENTERVILLE *  CLEAR     55  55 100 SW3       30.12S
OTTUMWA        CLEAR     57  56  96 W3        30.09S
6HR MIN TEMP:  56; 6HR MAX TEMP:  60;

WASHINGTON *   CLEAR     59  59 100 W3        30.08S
$$

ABBREVIATIONS USED IN REMARKS
   TC - TEMPERATURES IN CELSIUS
  WCI - WIND CHILL INDEX
   HX - HEAT INDEX
  VSB - VISIBILITY
$$




USA.gov is the U.S. government's official web portal to all federal, state and local government web resources and services.